カタログに戻る

STARLINK-31716

運用中通信VLEO
NORAD 59377·PAYLOAD·🇺🇸 United States

打ち上げ Apr 2, 2024 から Vandenberg Space Force Base

Loading…

次のパス (今後24時間)

TLE

最新Source: CelesTrak SupGP

元期: Sep 14, 2026, 22:41 UTC

1 59377C 24062D   26257.94562500  .00025716  00000+0  75977-3 0  2573
2 59377  53.1601  47.4735 0001338  80.4835 111.5593 15.34377847    17

AllMySatでSTARLINK-31716をリアルタイム追跡

Download on the App Store